Location: Baia Mare
(47.6567°N, 23.5850°E)
Time: 02:46:09
(UTC+03:00)

ISS - Pass Details

Date: 11 January 2019
Orbit: 408 x 410 km, 51.6° (Epoch: 25 April)

Event Time Altitude Azimuth Distance (km) Brightness Sun altitude
Exits shadow 06:50:13 16° 244° (WSW) 1,175 -1.9 -13.3°
Maximum altitude 06:51:08 17° 223° (SW) 1,106 -1.9 -13.1°
Drops below altitude 10° 06:53:24 10° 179° (S) 1,470 -0.7 -12.7°
Sets 06:55:56 0° 159° (SSE) 2,325 0.7 -12.3°
